Location: Unspecified
(41.1637°N, 0.0000°E)
Time: 18:32:33
(UTC+00:00)

NO-84 - Visible Passes

Search period start: 18 October 2019 00:00
Search period end: 28 October 2019 00:00
Orbit: 333 x 507 km, 55.0° (Epoch: 16 October)

Date Brightness Start Highest point End Pass type
(mag) Time Alt. Az. Time Alt. Az. Time Alt. Az.
18 Oct ? 04:43:51 11° NNW 04:46:38 21° NNE 04:49:40 10° ENE visible
19 Oct ? 03:58:46 16° N 03:59:16 17° NNE 04:01:50 10° ENE visible
19 Oct ? 05:32:35 10° NW 05:36:29 65° NE 05:40:16 10° ESE visible
20 Oct ? 03:13:46 10° NE 03:13:46 10° NE 03:13:51 10° NE visible
20 Oct ? 04:46:46 18° NNW 04:49:17 40° NE 04:52:56 10° ESE visible
21 Oct ? 04:01:51 28° NNE 04:02:00 28° NNE 04:05:22 10° E visible
21 Oct ? 05:34:58 10° WNW 05:38:44 46° SW 05:42:21 10° SSE visible
22 Oct ? 03:17:03 13° ENE 03:17:03 13° ENE 03:17:37 10° ENE visible
22 Oct ? 04:50:04 34° NW 04:51:38 81° SW 04:55:27 10° SE visible
23 Oct ? 04:05:22 45° E 04:05:22 45° E 04:08:15 10° ESE visible
23 Oct ? 05:38:24 11° W 05:40:39 17° SW 05:43:10 10° SSW visible
24 Oct ? 03:20:47 10° ESE 03:20:47 10° ESE 03:20:49 10° ESE visible
24 Oct ? 04:53:50 29° SW 04:53:50 29° SW 04:57:00 10° S visible
25 Oct ? 04:09:22 17° SSE 04:09:22 17° SSE 04:10:19 10° SSE visible
27 Oct ? 19:11:38 10° SSW 19:11:52 12° SSW 19:11:52 12° SSW visible
